Regional Weather Roundup
Issued by NWS

Home | Current Version | Previous Version | Text Only | Print | Product List | Glossary On
Versions: 1 2 3 4 5 6 7 8 9 10 11 12 13 14 15 16 17 18 19 20 21 22 23 24 25 26 27 28 29 30 31 32 33 34 35 36 37 38 39 40 41 42 43 44 45 46 47 48 49 50
000
ASUS44 KMEG 031110
RWRTN
TENNESSEE HOURLY STATE WEATHER ROUNDUP
NATIONAL WEATHER SERVICE MEMPHIS TN
600 AM CDT MON AUG 03 2015

TNZ002-004-019-021-049-052-054-088>092-031200-
WEST TENNESSEE

CITY           SKY/WX    TMP DP  RH WIND       PRES   REMARKS
MEMPHIS INTL   PTCLDY    75  69  81 CALM      29.92R
NWS MEMPHIS      N/A     70 N/A N/A MISG        N/A
JACKSON        CLEAR     68  65  90 CALM      29.92R
DYERSBURG        N/A    N/A N/A N/A MISG        N/A
PARIS          CLEAR     66  63  88 CALM      29.92S
LEXINGTON      CLEAR     64  64 100 CALM      29.93R
$$

TNZ008-025-027-028-033-062-065-066-031200-
NORTH MIDDLE TENNESSEE

CITY           SKY/WX    TMP DP  RH WIND       PRES   REMARKS
NASHVILLE      PTCLDY    66  64  93 CALM      29.94R
CLARKSVILLE    CLEAR     66  65  96 CALM      29.91R
SMYRNA         CLEAR     62  62 100 CALM      29.95R
CROSSVILLE     CLEAR     59  56  89 CALM      30.00R
$$

TNZ061-075-076-078-094-096-097-031200-
SOUTH MIDDLE TENNESSEE

CITY           SKY/WX    TMP DP  RH WIND       PRES   REMARKS
FAYETTEVILLE     N/A     63  59  88 NE5       29.95R
TULLAHOMA      CLEAR     59  55  88 CALM      29.97R
WINCHESTER     CLEAR     55  55 100 CALM      29.96R
COLUMBIA       CLEAR     63  63 100 CALM      29.93S
SHELBYVILLE    CLEAR     61  61 100 CALM      29.96R
$$

TNZ017-018-042-046-047-031200-
NORTHEAST TENNESSEE

CITY           SKY/WX    TMP DP  RH WIND       PRES   REMARKS
TRI CITIES     PTCLDY    61  59  93 CALM      29.97R
ELIZABETHTON   SUNNY     63  57  82 CALM      29.98R
$$

TNZ012-013-036-069-073-074-031200-
CENTRAL EAST TENNESSEE

CITY           SKY/WX    TMP DP  RH WIND       PRES   REMARKS
KNOXVILLE      PTCLDY    68  64  87 CALM      29.94R
OAK RIDGE      PTCLDY    63  61  93 CALM      29.97R
GATLINBURG     SUNNY     63  61  94 CALM      29.94R
MORRISTOWN     SUNNY     64  61  88 CALM      29.97R
$$

TNZ083-085-099-031200-
SOUTHEAST TENNESSEE

CITY           SKY/WX    TMP DP  RH WIND       PRES   REMARKS
CHATTANOOGA    PTCLDY    67  63  87 N3        29.93R
$$

SKY/WX REPORTED AS FAIR MEANS FEW OR NO CLOUDS BELOW
12 THOUSAND FEET.



USA.gov is the U.S. government's official web portal to all federal, state and local government web resources and services.